カタログに戻る

SL-16 DEB

運用中LEO
NORAD 18411·DEBRIS·🇷🇺 Russia

打ち上げ May 13, 1987 から Baikonur Cosmodrome

Loading…

次のパス (今後24時間)

TLE

最新Source: Space-Track

元期: Sep 14, 2026, 10:53 UTC

1 18411U 87041D   26257.45364676  .00000033  00000-0  67125-4 0  9999
2 18411  71.0284 257.4771 0186106  82.9841  67.3324 13.76497441974524

AllMySatでSL-16 DEBをリアルタイム追跡

Download on the App Store